TimeEST,TemperatureF,Dew PointF,Humidity,Sea Level PressureIn,VisibilityMPH,Wind Direction,Wind SpeedMPH,Gust SpeedMPH,PrecipitationIn,Events,Conditions,WindDirDegrees,DateUTC
12:54 AM,15.1,6.1,68,30.68,-9999.0,NW,10.4,-,N/A,,Clear,320,2013-11-24 05:54:00
1:54 AM,15.1,5.0,64,30.69,-9999.0,NW,9.2,-,N/A,,Clear,320,2013-11-24 06:54:00
2:54 AM,14.0,5.0,67,30.69,-9999.0,NNW,10.4,-,N/A,,Clear,330,2013-11-24 07:54:00
3:54 AM,12.9,5.0,71,30.69,-9999.0,NNW,9.2,-,N/A,,Clear,330,2013-11-24 08:54:00
4:54 AM,12.9,5.0,71,30.68,-9999.0,NNW,9.2,-,N/A,,Clear,340,2013-11-24 09:54:00
5:54 AM,12.0,3.9,70,30.68,-9999.0,NW,8.1,-,N/A,,Clear,320,2013-11-24 10:54:00
6:54 AM,10.9,3.9,73,30.70,10.0,WNW,5.8,-,N/A,,Clear,300,2013-11-24 11:54:00
7:54 AM,10.9,3.9,73,30.72,10.0,WNW,4.6,-,N/A,,Clear,290,2013-11-24 12:54:00
8:54 AM,14.0,5.0,67,30.74,10.0,WNW,5.8,-,N/A,,Clear,300,2013-11-24 13:54:00
9:54 AM,17.1,7.0,65,30.75,10.0,NW,5.8,-,N/A,,Clear,320,2013-11-24 14:54:00
10:54 AM,21.0,9.0,60,30.74,10.0,West,5.8,-,N/A,,Clear,260,2013-11-24 15:54:00
11:54 AM,23.0,8.1,53,30.73,10.0,West,8.1,-,N/A,,Clear,270,2013-11-24 16:54:00
12:54 PM,23.0,7.0,50,30.69,10.0,Variable,4.6,-,N/A,,Clear,0,2013-11-24 17:54:00
1:54 PM,25.0,3.9,41,30.66,10.0,WNW,8.1,-,N/A,,Clear,290,2013-11-24 18:54:00
2:54 PM,25.0,3.9,41,30.63,10.0,West,6.9,-,N/A,,Clear,270,2013-11-24 19:54:00
3:54 PM,25.0,1.9,37,30.62,10.0,WSW,4.6,-,N/A,,Clear,250,2013-11-24 20:54:00
4:54 PM,23.0,3.9,44,30.61,10.0,Calm,Calm,-,N/A,,Clear,0,2013-11-24 21:54:00
5:54 PM,23.0,5.0,46,30.59,10.0,Calm,Calm,-,N/A,,Clear,0,2013-11-24 22:54:00
6:54 PM,19.9,9.0,62,30.58,10.0,Calm,Calm,-,N/A,,Clear,0,2013-11-24 23:54:00
7:54 PM,19.9,6.1,55,30.58,10.0,SW,3.5,-,N/A,,Clear,220,2013-11-25 00:54:00
8:54 PM,19.9,6.1,55,30.56,-9999.0,SSW,3.5,-,N/A,,Clear,210,2013-11-25 01:54:00
9:54 PM,19.0,8.1,62,30.55,-9999.0,SW,3.5,-,N/A,,Clear,220,2013-11-25 02:54:00
10:54 PM,19.0,8.1,62,30.53,-9999.0,SW,3.5,-,N/A,,Clear,220,2013-11-25 03:54:00
11:54 PM,18.0,9.0,68,30.51,-9999.0,SSE,3.5,-,N/A,,Clear,160,2013-11-25 04:54:00